Latest Weather Observations for Norseman Airport

IDW60801

Issued at 10:35 am WST Thursday 28 August 2014 (issued every 30 minutes, with the page automatically refreshed every 10 minutes)

About weather observations | Map of weather stations | Latest weather observations for WA | Other Formats
Station Details ID: 012009 Name: NORSEMAN AERO Lat: -32.21 Lon: 121.75 Height: 262.5 m
Data from the previous 72 hours. | See also: Recent months at Norseman Airport
Date/Time
WST
Temp
°C
App
Temp
°C
Dew
Point
Rel
Hum
%
Delta-T
°C
Wind Press
QNH
hPa
Press
MSL
hPa
Rain
since 9 am
mm
Dir
 
Spd
km/h
Gust
km/h
Spd
kts
Gust
kts
28/10:30am 26.0 18.8 -1.7 16 12.6 N 26 35 14 19 1017.5 1017.6 0.0
28/10:00am 23.4 16.4 -0.8 20 11.0 N 26 32 14 17 1017.9 1018.0 0.0
28/09:30am 22.0 15.8 -0.1 23 10.0 N 22 30 12 16 1018.2 1018.3 0.0
28/09:00am 21.2 14.3 -0.1 24 9.6 N 26 32 14 17 1018.3 1018.4 0.0
28/08:30am 19.7 14.1 1.2 29 8.5 N 20 26 11 14 1018.3 1018.4 0.0
28/08:00am 17.2 12.4 2.4 37 6.8 N 17 20 9 11 1018.2 1018.3 0.0
28/07:30am 15.2 10.8 2.7 43 5.7 N 15 17 8 9 1018.1 1018.2 0.0
28/07:00am 13.8 8.6 2.7 47 5.0 NNE 19 22 10 12 1017.9 1018.0 0.0
28/06:30am 10.0 6.1 3.3 63 3.0 N 13 15 7 8 1017.9 1018.0 0.0
28/06:00am 10.6 5.9 2.9 59 3.4 NNE 17 17 9 9 1017.9 1018.0 0.0
28/05:30am 10.9 6.1 2.7 57 3.6 N 17 19 9 10 1017.8 1017.9 0.0
28/05:00am 14.7 9.4 1.9 42 5.7 NNE 19 22 10 12 1017.5 1017.6 0.0
28/04:57am 14.1 9.3 2.4 45 5.2 NNE 17 22 9 12 1017.5 1017.6 0.0
28/04:30am 9.1 5.1 4.7 74 2.0 NNE 15 17 8 9 1017.5 1017.6 0.0
28/04:00am 8.7 6.1 4.3 74 2.0 NNE 7 13 4 7 1017.8 1017.9 0.0
28/03:30am 8.0 5.3 3.7 74 1.9 E 7 11 4 6 1017.6 1017.7 0.0
28/03:00am 8.9 6.5 4.5 74 2.0 S 6 9 3 5 1017.7 1017.8 0.0
28/02:30am 10.2 8.0 5.2 71 2.3 ESE 6 9 3 5 1017.6 1017.7 0.0
28/02:00am 11.0 8.7 5.7 70 2.5 SE 7 9 4 5 1017.9 1018.0 0.0
28/01:30am 12.5 10.3 6.3 66 3.0 SW 7 9 4 5 1018.1 1018.2 0.0
28/01:00am 11.9 9.5 7.2 73 2.3 WNW 9 17 5 9 1018.1 1018.2 0.0
28/12:30am 12.5 10.7 8.0 74 2.2 N 7 9 4 5 1018.0 1018.1 0.0
28/12:00am 11.5 10.8 6.8 73 2.3 NNE 0 0 0 0 1018.1 1018.2 0.0
 
Date/Time
WST
Temp
°C
App
Temp
°C
Dew
Point
Rel
Hum
%
Delta-T
°C
Wind Press
QNH
hPa
Press
MSL
hPa
Rain
since 9 am
mm
Dir
 
Spd
km/h
Gust
km/h
Spd
kts
Gust
kts
27/11:30pm 11.7 11.0 7.0 73 2.3 CALM 0 0 0 0 1018.3 1018.4 0.0
27/11:00pm 12.4 11.8 7.5 72 2.4 CALM 0 0 0 0 1018.7 1018.8 0.0
27/10:30pm 12.9 12.3 7.6 70 2.6 CALM 0 0 0 0 1019.0 1019.1 0.0
27/10:00pm 14.4 12.3 8.4 67 3.0 S 9 9 5 5 1019.2 1019.2 0.0
27/09:30pm 14.4 12.4 8.6 68 3.0 SW 9 13 5 7 1019.4 1019.4 0.0
27/09:00pm 14.2 12.1 8.2 67 3.0 SSW 9 9 5 5 1019.5 1019.5 0.0
27/08:30pm 14.3 12.5 8.0 66 3.2 SSW 7 7 4 4 1019.4 1019.4 0.0
27/08:00pm 14.8 14.4 8.3 65 3.3 CALM 0 0 0 0 1019.2 1019.2 0.0
27/07:30pm 16.3 16.0 8.5 60 4.0 CALM 0 0 0 0 1019.0 1019.1 0.0
27/07:00pm 17.4 16.1 9.1 58 4.4 SSW 6 7 3 4 1019.0 1019.1 0.0
27/06:30pm 18.1 16.2 8.9 55 4.8 ESE 9 11 5 6 1018.7 1018.8 0.0
27/06:00pm 18.7 17.2 9.2 54 5.0 E 7 7 4 4 1018.6 1018.7 0.0
27/05:30pm 21.6 20.2 8.8 44 6.9 NE 6 7 3 4 1018.9 1019.0 0.0
27/05:00pm 22.6 20.2 8.7 41 7.5 NE 11 15 6 8 1019.0 1019.1 0.0
27/04:30pm 23.4 19.4 8.3 38 8.1 N 19 24 10 13 1019.0 1019.1 0.0
27/04:00pm 23.3 19.4 8.6 39 7.9 N 19 24 10 13 1019.0 1019.1 0.0
27/03:30pm 24.1 20.1 8.9 38 8.3 NNE 20 26 11 14 1019.0 1019.1 0.0
27/03:00pm 23.5 19.1 8.8 39 8.0 NNE 22 32 12 17 1019.2 1019.2 0.0
27/02:30pm 23.2 19.2 8.9 40 7.8 N 20 28 11 15 1019.6 1019.6 0.0
27/02:00pm 23.1 19.8 9.5 42 7.4 N 17 24 9 13 1019.8 1019.8 0.0
27/01:30pm 21.7 18.0 9.6 46 6.6 N 19 24 10 13 1020.2 1020.2 0.0
27/01:00pm 21.5 18.3 10.0 48 6.3 N 17 28 9 15 1020.4 1020.5 0.0
27/12:30pm 21.8 19.6 10.9 50 6.1 N 13 22 7 12 1020.9 1021.0 0.0
27/12:00pm 21.4 18.7 10.3 49 6.1 N 15 24 8 13 1021.5 1021.6 0.0
27/11:30am 19.6 16.5 10.3 55 5.1 N 17 24 9 13 1022.1 1022.2 0.0
27/11:00am 18.9 16.2 10.5 58 4.6 NNE 15 20 8 11 1022.8 1022.9 0.0
27/10:30am 17.7 15.5 10.8 64 3.8 ENE 13 22 7 12 1023.3 1023.3 0.0
27/10:00am 16.9 13.4 11.0 68 3.2 NE 20 28 11 15 1023.5 1023.5 0.0
27/09:30am 15.8 12.5 10.8 72 2.7 NNE 19 30 10 16 1024.0 1024.1 0.0
27/09:00am 14.3 11.3 10.7 79 1.9 NE 17 24 9 13 1024.3 1024.4 0.0
27/08:30am 13.5 10.6 10.9 84 1.4 NE 17 24 9 13 1024.6 1024.7 0.0
27/08:00am 12.9 9.5 10.4 85 1.3 ENE 19 26 10 14 1024.5 1024.6 0.0
27/07:30am 12.7 9.3 10.4 86 1.2 ENE 19 28 10 15 1024.1 1024.2 0.0
27/07:00am 12.3 10.5 11.0 92 0.7 NE 11 19 6 10 1024.1 1024.2 0.0
27/06:30am 12.0 9.5 11.1 94 0.5 ENE 15 20 8 11 1023.8 1023.9 0.0
27/06:00am 11.9 10.1 11.0 94 0.5 ENE 11 15 6 8 1023.8 1023.9 0.0
27/05:30am 12.1 10.6 10.5 90 0.8 E 9 15 5 8 1023.7 1023.8 0.0
27/05:00am 12.0 10.4 10.1 88 1.0 ENE 9 13 5 7 1023.7 1023.8 0.0
27/04:30am 12.6 11.0 10.1 85 1.3 ENE 9 15 5 8 1023.7 1023.8 0.0
27/04:00am 12.8 10.0 10.0 83 1.5 E 15 20 8 11 1023.8 1023.9 0.0
27/03:30am 12.9 10.4 9.7 81 1.7 E 13 20 7 11 1023.9 1024.0 0.0
27/03:00am 12.9 10.3 9.5 80 1.7 E 13 22 7 12 1023.8 1023.9 0.0
27/02:30am 13.1 10.5 9.5 79 1.9 ESE 13 22 7 12 1024.1 1024.2 0.0
27/02:00am 12.9 10.8 9.9 82 1.6 SE 11 19 6 10 1024.3 1024.4 0.0
27/01:30am 13.3 11.3 10.1 81 1.7 ESE 11 17 6 9 1024.4 1024.5 0.0
27/01:00am 13.6 11.2 10.0 79 1.9 ESE 13 22 7 12 1024.6 1024.7 0.0
27/12:30am 13.6 10.4 10.0 79 1.9 ESE 17 24 9 13 1024.8 1024.9 0.0
27/12:00am 13.8 11.3 9.8 77 2.1 SE 13 22 7 12 1024.7 1024.8 0.0
 
Date/Time
WST
Temp
°C
App
Temp
°C
Dew
Point
Rel
Hum
%
Delta-T
°C
Wind Press
QNH
hPa
Press
MSL
hPa
Rain
since 9 am
mm
Dir
 
Spd
km/h
Gust
km/h
Spd
kts
Gust
kts
26/11:30pm 14.0 10.8 10.0 77 2.1 ESE 17 30 9 16 1024.8 1024.9 0.0
26/11:00pm 14.1 11.3 10.1 77 2.1 SE 15 22 8 12 1024.8 1024.9 0.0
26/10:30pm 14.3 10.8 10.3 77 2.1 SSE 19 26 10 14 1024.6 1024.7 0.0
26/10:00pm 14.5 12.2 10.3 76 2.2 SSE 13 20 7 11 1024.4 1024.5 0.0
26/09:30pm 14.7 11.7 10.5 76 2.2 S 17 24 9 13 1024.3 1024.4 0.0
26/09:00pm 15.1 11.8 10.9 76 2.2 S 19 28 10 15 1024.4 1024.5 0.0
26/08:30pm 15.4 12.2 11.4 77 2.2 S 19 28 10 15 1024.3 1024.4 0.0
26/08:00pm 15.6 12.9 11.6 77 2.2 S 17 28 9 15 1024.0 1024.1 0.0
26/07:30pm 15.6 11.2 11.8 78 2.1 S 26 37 14 20 1023.7 1023.8 0.0
26/07:00pm 16.4 12.8 11.8 74 2.5 S 22 37 12 20 1023.0 1023.1 0.0
26/06:30pm 17.4 13.2 12.3 72 2.9 S 26 37 14 20 1022.1 1022.2 0.0
26/06:00pm 19.0 15.2 12.5 66 3.7 S 24 39 13 21 1021.3 1021.4 0.0
26/05:30pm 20.5 16.0 12.5 60 4.6 S 28 43 15 23 1021.0 1021.1 0.0
26/05:00pm 25.0 20.4 6.7 31 9.6 SW 20 26 11 14 1020.3 1020.3 0.0
26/04:30pm 25.7 20.7 6.3 29 10.2 WSW 22 32 12 17 1020.1 1020.1 0.0
26/04:00pm 26.6 22.7 7.1 29 10.4 SW 17 24 9 13 1020.1 1020.1 0.0
26/03:30pm 26.7 22.1 6.7 28 10.6 SW 20 30 11 16 1020.0 1020.0 0.0
26/03:00pm 26.6 20.9 6.6 28 10.6 SW 26 32 14 17 1019.9 1019.9 0.0
26/02:30pm 26.6 23.2 6.1 27 10.8 SSW 13 24 7 13 1020.0 1020.0 0.0
26/02:00pm 26.5 23.1 6.0 27 10.7 SW 13 24 7 13 1020.2 1020.2 0.0
26/01:30pm 26.0 21.9 6.1 28 10.4 W 17 28 9 15 1020.3 1020.3 0.0
26/01:00pm 26.2 21.3 5.2 26 10.8 W 20 33 11 18 1020.7 1020.8 0.0
26/12:30pm 25.4 21.2 5.6 28 10.2 WNW 17 22 9 12 1021.1 1021.2 0.0
26/12:00pm 24.6 20.8 5.9 30 9.7 W 15 22 8 12 1021.5 1021.6 0.0
26/11:30am 24.7 20.6 6.0 30 9.7 WSW 17 22 9 12 1022.0 1022.1 0.0
26/11:00am 23.6 18.0 5.5 31 9.2 WSW 24 32 13 17 1022.3 1022.4 0.0
26/10:30am 22.9 20.2 5.8 33 8.7 W 9 22 5 12 1022.5 1022.6 0.0
26/10:00am 19.7 18.2 6.8 43 6.6 W 4 7 2 4 1022.8 1022.9 0.0
26/09:30am 17.4 16.0 5.7 46 5.8 N 2 6 1 3 1022.7 1022.8 0.0
26/09:00am 15.9 13.5 5.2 49 5.1 N 7 7 4 4 1022.5 1022.6 0.0
26/08:30am 14.8 13.8 5.6 54 4.4 CALM 0 0 0 0 1022.5 1022.6 0.0
26/08:00am 12.5 11.0 5.2 61 3.4 NNE 2 6 1 3 1022.4 1022.5 0.0
26/07:30am 10.6 9.4 4.7 67 2.7 CALM 0 0 0 0 1022.2 1022.3 0.0
26/07:00am 7.8 6.4 3.3 73 1.9 CALM 0 0 0 0 1021.9 1022.0 0.0
26/06:30am 6.7 4.7 2.4 74 1.8 ENE 2 7 1 4 1021.5 1021.6 0.0
26/06:00am 6.8 3.4 2.1 72 1.9 ENE 9 11 5 6 1021.2 1021.3 0.0
26/05:30am 6.3 3.4 1.6 72 1.9 N 6 7 3 4 1021.3 1021.4 0.0
26/05:00am 6.9 4.1 1.8 70 2.1 NNE 6 7 3 4 1020.6 1020.7 0.0
26/04:30am 6.8 5.1 1.9 71 2.0 CALM 0 0 0 0 1020.7 1020.8 0.0
26/04:00am 7.1 5.5 2.2 71 2.0 CALM 0 0 0 0 1020.6 1020.7 0.0
26/03:30am 7.5 5.9 2.4 70 2.1 CALM 0 0 0 0 1020.5 1020.6 0.0
26/03:00am 7.8 6.2 2.3 68 2.3 CALM 0 0 0 0 1020.4 1020.5 0.0
26/02:30am 8.1 6.5 2.6 68 2.3 CALM 0 0 0 0 1020.4 1020.5 0.0
26/02:00am 8.4 6.9 2.8 68 2.4 CALM 0 0 0 0 1020.5 1020.6 0.0
26/01:30am 9.1 7.6 3.1 66 2.6 CALM 0 0 0 0 1020.7 1020.8 0.0
26/01:00am 9.2 7.7 3.2 66 2.6 CALM 0 2 0 1 1020.8 1020.9 0.0
26/12:30am 9.8 7.2 3.3 64 2.9 SW 6 7 3 4 1020.9 1021.0 0.0
26/12:00am 10.7 8.1 3.3 60 3.3 SSW 6 7 3 4 1020.9 1021.0 0.0
 
Date/Time
WST
Temp
°C
App
Temp
°C
Dew
Point
Rel
Hum
%
Delta-T
°C
Wind Press
QNH
hPa
Press
MSL
hPa
Rain
since 9 am
mm
Dir
 
Spd
km/h
Gust
km/h
Spd
kts
Gust
kts
25/11:30pm 11.2 8.1 3.7 60 3.4 SSE 9 11 5 6 1021.1 1021.2 0.0
25/11:00pm 11.3 8.9 4.1 61 3.3 S 6 7 3 4 1021.2 1021.3 0.0
25/10:30pm 11.8 10.1 4.1 59 3.5 SE 2 7 1 4 1021.0 1021.1 0.0
25/10:00pm 12.8 10.2 4.3 56 3.9 SSE 7 11 4 6 1020.9 1021.0 0.0
25/09:30pm 13.4 11.4 4.3 54 4.2 SE 4 9 2 5 1020.9 1021.0 0.0
25/09:00pm 14.7 12.6 4.1 49 4.9 W 4 13 2 7 1021.0 1021.1 0.0
25/08:30pm 15.6 13.4 5.5 51 4.9 SSW 6 9 3 5 1020.9 1021.0 0.0
25/08:00pm 17.6 14.2 4.2 41 6.4 ESE 11 13 6 7 1021.0 1021.1 0.0
25/07:30pm 18.8 16.5 4.9 40 6.8 SSW 6 9 3 5 1021.3 1021.4 0.0
25/07:00pm 19.4 16.8 4.3 37 7.3 SSW 7 9 4 5 1021.0 1021.1 0.0
25/06:30pm 20.4 18.3 6.0 39 7.3 NE 6 7 3 4 1020.7 1020.8 0.0
25/06:00pm 23.9 20.5 3.8 27 9.9 NE 11 13 6 7 1020.4 1020.5 0.0
25/05:30pm 25.4 20.9 4.0 25 10.8 NNE 17 20 9 11 1020.2 1020.2 0.0
25/05:00pm 27.4 22.2 3.8 22 11.9 N 20 26 11 14 1020.0 1020.0 0.0
25/04:30pm 28.8 24.4 2.9 19 13.1 N 15 22 8 12 1019.9 1019.9 0.0
25/04:00pm 29.0 23.9 3.1 19 13.1 N 19 26 10 14 1019.8 1019.8 0.0
25/03:30pm 28.7 22.7 3.5 20 12.8 N 24 33 13 18 1019.9 1019.9 0.0
25/03:00pm 29.6 24.3 2.8 18 13.5 N 20 28 11 15 1020.0 1020.0 0.0
25/02:30pm 29.3 23.7 3.3 19 13.2 N 22 33 12 18 1020.1 1020.1 0.0
25/02:00pm 29.3 23.7 3.3 19 13.2 N 22 33 12 18 1020.3 1020.3 0.0
25/01:30pm 29.2 23.8 4.6 21 12.8 N 22 39 12 21 1020.5 1020.6 0.0
25/01:00pm 28.3 23.4 3.9 21 12.4 N 19 28 10 15 1021.0 1021.1 0.0
25/12:30pm 27.8 22.8 4.8 23 11.9 N 20 26 11 14 1021.4 1021.5 0.0
25/12:00pm 26.9 22.0 5.2 25 11.2 N 20 28 11 15 1022.1 1022.2 0.0
25/11:30am 26.8 21.9 5.1 25 11.2 N 20 26 11 14 1022.6 1022.7 0.0
25/11:00am 24.5 20.3 5.8 30 9.6 N 17 20 9 11 1023.2 1023.2 0.0

Other Formats:

Comma delimited format used in spreadsheet applications
http://www.bom.gov.au/fwo/IDW60801/IDW60801.95642.axf

JavaScript Object Notation format (JSON) in row-major order
http://www.bom.gov.au/fwo/IDW60801/IDW60801.95642.json